Temp
-12 -12 -11 -11 -11 -11 -11 -11 -10 -10 -10 -10 -10 -10 -10 -10 -9 -9 -9 -9 -9 -9 -9 -9 -9 -9 -9 -9 -9 -9 -9 -9 -9 -9 -8 -8 -8 -8 -8 -8 -8 -8 -8 -8 -8 -9 -9 -9 -9 -9 -9 -9 -9 -9 -9 -9 -9 -9 -9 -9 -9 -9 -9 -9 -9 -9 -9 -8 -8
-11 -11 -11 -11 -11 -11 -11 -10 -10 -10 -10 -10 -10 -10 -10 -9 -9 -9 -9 -9 -9 -9 -9 -9 -9 -9 -9 -9 -9 -9 -9 -9 -9 -8 -8 -8 -8 -8 -8 -8 -7 -7 -7 -7 -8 -8 -8 -9 -9 -9 -9 -9 -9 -9 -9 -9 -9 -9 -9 -9 -9 -9 -9 -9 -9 -9 -8 -8 -8
-11 -11 -11 -11 -11 -11 -10 -10 -10 -10 -10 -10 -10 -10 -10 -9 -9 -9 -9 -9 -9 -9 -9 -9 -9 -9 -9 -9 -9 -9 -9 -9 -8 -8 -8 -8 -8 -8 -7 -7 -7 -7 -7 -7 -7 -8 -8 -8 -9 -9 -9 -9 -9 -9 -9 -9 -9 -9 -9 -9 -9 -9 -9 -9 -9 -8 -8 -8 -8
-11 -11 -11 -11 -11 -11 -10 -10 -10 -10 -10 -10 -10 -10 -9 -9 -10 -9 -9 -10 -9 -9 -9 -9 -9 -9 -9 -9 -9 -9 -9 -9 -8 -8 -8 -8 -7 -7 -7 -7 -7 -7 -7 -7 -7 -8 -8 -8 -9 -9 -9 -9 -9 -9 -9 -9 -9 -9 -9 -9 -9 -9 -9 -9 -9 -8 -8 -8 -8
-11 -11 -11 -11 -11 -10 -10 -10 -10 -10 -10 -10 -10 -9 -9 -9 -10 -10 -10 -10 -9 -9 -9 -9 -9 -9 -9 -9 -9 -9 -9 -8 -8 -8 -8 -8 -7 -7 -7 -6 -7 -7 -7 -7 -8 -8 -8 -8 -9 -9 -9 -9 -9 -9 -9 -9 -9 -9 -9 -9 -9 -9 -9 -9 -9 -8 -8 -8 -8
-11 -11 -11 -11 -10 -10 -10 -10 -10 -10 -10 -10 -9 -9 -9 -10 -10 -10 -10 -10 -9 -9 -9 -9 -9 -9 -9 -9 -9 -9 -9 -8 -8 -8 -8 -7 -7 -7 -6 -6 -7 -7 -7 -8 -8 -8 -8 -8 -9 -9 -9 -9 -9 -9 -9 -9 -9 -9 -9 -9 -9 -9 -9 -9 -9 -9 -8 -8 -8
-11 -11 -11 -10 -10 -10 -10 -10 -10 -9 -9 -9 -9 -9 -10 -10 -10 -10 -10 -10 -9 -9 -9 -9 -9 -9 -9 -9 -9 -9 -8 -8 -8 -8 -8 -7 -7 -7 -6 -6 -6 -7 -7 -8 -8 -8 -8 -8 -8 -8 -8 -8 -8 -8 -9 -9 -9 -9 -9 -9 -9 -9 -9 -9 -9 -9 -8 -8 -8
-11 -11 -10 -10 -10 -10 -10 -9 -9 -9 -9 -9 -9 -9 -10 -10 -10 -10 -10 -9 -9 -9 -9 -9 -9 -9 -9 -9 -9 -9 -9 -8 -8 -8 -8 -7 -7 -7 -6 -6 -6 -7 -7 -7 -8 -8 -8 -8 -8 -8 -8 -8 -8 -8 -8 -9 -9 -9 -9 -9 -9 -9 -9 -9 -9 -8 -8 -8 -8
-11 -10 -10 -10 -10 -10 -9 -9 -9 -9 -9 -9 -9 -9 -9 -10 -9 -9 -9 -9 -9 -9 -9 -9 -9 -9 -9 -9 -9 -9 -9 -8 -8 -8 -8 -7 -7 -7 -7 -6 -6 -7 -7 -7 -7 -7 -8 -8 -8 -8 -8 -8 -8 -8 -8 -8 -9 -9 -9 -9 -9 -8 -8 -8 -8 -8 -8 -8 -8
-10 -10 -10 -10 -9 -9 -9 -9 -9 -9 -9 -9 -9 -9 -9 -9 -9 -9 -9 -9 -9 -9 -9 -9 -9 -9 -9 -9 -9 -9 -9 -9 -8 -8 -8 -8 -7 -7 -7 -6 -6 -7 -7 -7 -7 -7 -7 -7 -8 -8 -8 -8 -8 -8 -8 -8 -8 -8 -8 -8 -8 -8 -8 -8 -8 -8 -8 -8 -7
-10 -10 -10 -9 -9 -9 -9 -9 -9 -9 -9 -9 -9 -9 -9 -9 -9 -9 -9 -9 -9 -9 -9 -9 -9 -9 -9 -9 -9 -9 -9 -9 -9 -8 -8 -8 -7 -7 -7 -6 -6 -7 -7 -7 -7 -7 -7 -7 -7 -7 -7 -8 -8 -8 -8 -8 -8 -8 -8 -8 -8 -8 -8 -7 -7 -7 -7 -7 -7
-10 -10 -9 -9 -9 -9 -9 -9 -9 -9 -9 -9 -9 -9 -9 -9 -9 -9 -9 -9 -9 -9 -9 -9 -9 -9 -9 -9 -9 -9 -9 -9 -9 -8 -8 -8 -8 -7 -7 -7 -6 -6 -7 -7 -7 -7 -7 -7 -7 -7 -7 -7 -7 -7 -7 -7 -7 -7 -7 -7 -7 -7 -7 -7 -7 -7 -7 -7 -6
-10 -10 -9 -9 -9 -9 -9 -9 -9 -9 -9 -9 -9 -9 -9 -9 -9 -9 -9 -9 -9 -9 -9 -9 -9 -9 -9 -9 -8 -8 -8 -9 -9 -8 -8 -8 -8 -8 -7 -7 -7 -6 -7 -7 -7 -7 -7 -7 -7 -7 -7 -7 -7 -7 -7 -7 -7 -7 -7 -7 -7 -7 -7 -7 -7 -7 -7 -6 -6
-10 -9 -9 -9 -9 -9 -9 -9 -9 -9 -9 -9 -9 -9 -9 -9 -9 -9 -9 -9 -9 -9 -9 -9 -8 -8 -8 -8 -8 -8 -8 -8 -8 -8 -8 -8 -8 -8 -7 -7 -7 -6 -6 -7 -7 -7 -7 -7 -7 -7 -8 -8 -8 -8 -8 -8 -8 -8 -8 -8 -8 -8 -8 -8 -8 -7 -7 -7 -7
-9 -9 -9 -9 -9 -9 -9 -9 -9 -9 -9 -9 -9 -9 -9 -9 -9 -9 -9 -9 -9 -9 -9 -8 -8 -8 -8 -8 -8 -8 -8 -8 -8 -8 -8 -8 -8 -8 -8 -7 -7 -7 -7 -6 -6 -6 -6 -7 -7 -7 -7 -7 -8 -8 -8 -8 -8 -8 -8 -8 -8 -8 -8 -8 -8 -8 -8 -7 -7
-9 -9 -9 -9 -9 -9 -9 -9 -9 -9 -9 -9 -9 -9 -9 -9 -9 -9 -9 -9 -9 -8 -8 -8 -8 -8 -8 -8 -8 -8 -8 -8 -8 -8 -8 -8 -8 -8 -7 -7 -7 -7 -7 -6 -6 -6 -6 -6 -6 -6 -7 -7 -7 -7 -7 -8 -8 -8 -8 -8 -8 -8 -8 -8 -8 -8 -8 -8 -7
-9 -9 -9 -9 -9 -9 -9 -9 -9 -9 -9 -9 -9 -9 -9 -8 -8 -8 -9 -9 -9 -8 -8 -8 -8 -8 -8 -8 -8 -8 -8 -8 -8 -8 -8 -8 -8 -8 -7 -7 -7 -7 -7 -6 -6 -6 -5 -5 -6 -6 -6 -6 -6 -6 -7 -7 -7 -7 -8 -8 -8 -8 -8 -8 -8 -8 -8 -8 -8
-9 -9 -9 -9 -9 -9 -9 -9 -9 -9 -9 -9 -8 -8 -8 -8 -8 -8 -8 -8 -8 -8 -8 -7 -7 -7 -7 -7 -8 -8 -8 -8 -8 -8 -8 -8 -8 -7 -7 -7 -7 -7 -7 -7 -6 -6 -6 -6 -5 -5 -6 -6 -6 -6 -6 -6 -6 -6 -7 -7 -7 -7 -7 -7 -8 -8 -8 -8 -8
-9 -9 -9 -9 -9 -9 -9 -9 -9 -9 -9 -8 -8 -8 -8 -8 -8 -8 -8 -8 -8 -8 -8 -7 -7 -7 -7 -7 -7 -8 -8 -8 -8 -8 -8 -8 -8 -7 -7 -7 -7 -7 -7 -7 -6 -6 -6 -6 -6 -6 -6 -6 -6 -5 -5 -5 -5 -5 -6 -6 -6 -6 -6 -7 -7 -7 -7 -7 -8
-9 -9 -9 -8 -8 -9 -9 -9 -9 -9 -9 -8 -8 -8 -7 -7 -7 -7 -7 -7 -8 -8 -8 -7 -7 -6 -6 -6 -7 -7 -8 -8 -8 -8 -8 -8 -8 -7 -7 -7 -7 -6 -6 -7 -7 -6 -6 -6 -6 -6 -6 -6 -6 -6 -6 -6 -6 -6 -6 -6 -6 -6 -6 -6 -6 -6 -6 -7 -7
-9 -8 -8 -8 -8 -8 -9 -9 -9 -9 -8 -8 -8 -8 -7 -7 -7 -7 -7 -7 -7 -7 -7 -7 -7 -6 -6 -6 -6 -7 -7 -7 -8 -8 -8 -8 -8 -8 -7 -7 -7 -6 -6 -7 -7 -6 -6 -6 -6 -6 -6 -6 -6 -6 -6 -6 -6 -6 -6 -6 -6 -6 -7 -7 -6 -6 -6 -6 -7
-8 -8 -8 -8 -8 -8 -8 -8 -8 -8 -8 -8 -8 -8 -7 -7 -7 -7 -7 -7 -7 -7 -7 -7 -7 -7 -7 -7 -7 -6 -6 -7 -7 -7 -8 -8 -8 -8 -7 -7 -7 -7 -6 -6 -6 -6 -6 -5 -6 -6 -6 -6 -6 -6 -6 -7 -7 -7 -7 -7 -7 -7 -7 -7 -7 -7 -7 -7 -7
-8 -8 -8 -8 -8 -8 -8 -8 -8 -8 -8 -8 -8 -8 -8 -7 -7 -7 -7 -7 -7 -7 -7 -7 -7 -7 -7 -7 -7 -6 -6 -6 -6 -6 -7 -7 -7 -7 -7 -7 -7 -7 -6 -6 -6 -6 -6 -6 -5 -5 -6 -6 -6 -6 -6 -7 -7 -7 -7 -7 -7 -7 -7 -7 -7 -7 -7 -7 -7
-8 -8 -8 -8 -8 -8 -8 -8 -8 -8 -8 -8 -8 -8 -8 -7 -7 -7 -7 -7 -7 -7 -7 -7 -7 -7 -7 -7 -7 -6 -6 -6 -6 -6 -6 -6 -7 -7 -7 -7 -7 -7 -7 -6 -5 -5 -6 -6 -6 -6 -6 -6 -6 -6 -6 -7 -7 -7 -7 -8 -8 -8 -8 -8 -7 -7 -7 -7 -7
-8 -8 -8 -8 -8 -8 -8 -8 -8 -8 -9 -9 -8 -8 -8 -8 -7 -7 -7 -7 -7 -7 -7 -7 -7 -7 -7 -7 -7 -7 -6 -6 -6 -6 -6 -6 -6 -7 -7 -7 -7 -7 -7 -6 -5 -5 -5 -6 -6 -6 -6 -6 -6 -6 -6 -6 -7 -7 -7 -8 -8 -8 -8 -8 -8 -8 -8 -8 -7
-8 -8 -8 -8 -8 -8 -8 -8 -8 -8 -9 -9 -8 -8 -8 -8 -7 -7 -7 -7 -7 -7 -7 -7 -7 -7 -7 -7 -7 -7 -7 -7 -7 -6 -6 -6 -6 -6 -7 -7 -7 -7 -7 -7 -5 -5 -5 -5 -6 -6 -6 -6 -6 -6 -6 -7 -7 -7 -7 -8 -8 -8 -8 -9 -9 -8 -8 -8 -8
-8 -8 -8 -8 -8 -8 -8 -8 -8 -8 -9 -9 -9 -8 -8 -8 -8 -7 -7 -7 -7 -7 -7 -7 -7 -7 -7 -7 -7 -7 -7 -7 -7 -7 -7 -7 -7 -6 -7 -7 -7 -6 -6 -6 -5 -5 -5 -5 -6 -6 -6 -6 -6 -6 -7 -7 -7 -7 -7 -8 -8 -8 -9 -9 -9 -9 -9 -8 -8
-8 -8 -8 -8 -8 -8 -8 -8 -8 -8 -9 -9 -9 -8 -8 -8 -8 -7 -7 -7 -7 -7 -7 -7 -7 -7 -7 -7 -7 -7 -7 -7 -7 -7 -7 -7 -7 -6 -7 -7 -6 -6 -6 -6 -6 -5 -5 -5 -6 -6 -6 -6 -6 -6 -6 -7 -7 -8 -8 -8 -8 -8 -9 -9 -9 -9 -9 -9 -8
-8 -8 -8 -7 -8 -8 -8 -8 -8 -8 -9 -9 -9 -9 -8 -8 -8 -8 -7 -7 -7 -7 -8 -8 -7 -7 -7 -7 -7 -7 -7 -7 -7 -7 -7 -7 -7 -6 -6 -6 -6 -6 -6 -6 -6 -5 -5 -5 -6 -6 -6 -6 -6 -6 -6 -7 -7 -8 -8 -8 -8 -9 -9 -9 -9 -9 -9 -9 -9
-8 -7 -7 -7 -7 -8 -8 -8 -8 -8 -9 -9 -9 -9 -8 -8 -8 -8 -7 -7 -7 -8 -8 -8 -7 -7 -7 -7 -7 -7 -7 -7 -7 -7 -7 -7 -7 -7 -6 -6 -6 -6 -6 -6 -6 -5 -5 -5 -6 -6 -6 -6 -6 -6 -6 -6 -7 -7 -8 -8 -8 -8 -9 -9 -9 -9 -9 -9 -9
-7 -7 -7 -7 -7 -8 -8 -8 -8 -8 -9 -9 -9 -9 -8 -8 -8 -8 -8 -8 -8 -8 -8 -7 -7 -7 -7 -7 -7 -7 -7 -7 -7 -7 -7 -7 -7 -7 -7 -6 -6 -6 -6 -6 -6 -5 -5 -5 -6 -6 -7 -7 -6 -6 -6 -6 -7 -7 -8 -8 -8 -8 -8 -9 -9 -9 -9 -9 -9
-7 -7 -7 -7 -7 -8 -8 -8 -8 -8 -9 -9 -9 -9 -8 -8 -8 -8 -8 -8 -8 -8 -8 -7 -7 -7 -7 -7 -7 -7 -7 -7 -7 -7 -7 -7 -7 -7 -7 -6 -6 -6 -6 -6 -6 -5 -5 -5 -6 -6 -7 -7 -6 -6 -6 -6 -6 -7 -7 -7 -7 -8 -8 -8 -9 -9 -9 -9 -9
-7 -7 -7 -7 -7 -8 -8 -8 -8 -8 -8 -9 -9 -9 -8 -8 -8 -8 -8 -8 -8 -8 -8 -8 -8 -7 -7 -7 -7 -7 -7 -8 -7 -7 -7 -7 -7 -7 -7 -6 -6 -6 -6 -6 -6 -6 -5 -5 -6 -7 -7 -7 -6 -6 -6 -6 -6 -7 -7 -7 -7 -7 -8 -8 -8 -9 -9 -9 -9
-7 -7 -7 -7 -7 -7 -8 -8 -8 -8 -8 -8 -9 -8 -8 -8 -8 -8 -8 -8 -8 -8 -8 -8 -8 -8 -7 -7 -7 -7 -8 -8 -7 -7 -7 -7 -7 -7 -6 -6 -6 -6 -6 -6 -6 -6 -5 -5 -6 -7 -7 -7 -6 -6 -6 -6 -6 -6 -7 -7 -7 -7 -7 -8 -8 -8 -8 -9 -9
-7 -7 -7 -7 -7 -7 -8 -8 -8 -8 -8 -8 -8 -8 -8 -8 -8 -8 -8 -8 -8 -8 -8 -8 -8 -7 -7 -7 -7 -7 -8 -8 -7 -7 -7 -7 -7 -7 -6 -6 -6 -6 -6 -6 -6 -6 -6 -5 -6 -7 -7 -7 -7 -6 -6 -6 -6 -6 -7 -7 -7 -7 -7 -8 -8 -8 -8 -9 -9
-7 -7 -7 -7 -7 -7 -8 -8 -8 -8 -8 -8 -8 -8 -8 -8 -8 -8 -8 -8 -8 -8 -8 -8 -8 -7 -7 -7 -7 -7 -8 -8 -8 -7 -7 -7 -7 -7 -7 -6 -6 -6 -6 -6 -6 -6 -6 -5 -5 -6 -7 -7 -7 -7 -7 -6 -6 -6 -7 -7 -7 -7 -8 -8 -8 -8 -8 -9 -9
-7 -7 -7 -7 -7 -7 -7 -8 -8 -8 -8 -8 -8 -9 -9 -8 -8 -8 -8 -8 -8 -8 -8 -8 -8 -8 -7 -7 -7 -7 -8 -8 -8 -8 -7 -7 -7 -7 -7 -7 -7 -6 -6 -6 -7 -7 -6 -6 -5 -5 -6 -7 -7 -7 -7 -6 -6 -6 -7 -7 -7 -8 -8 -8 -8 -8 -9 -9 -9
-7 -7 -7 -7 -7 -7 -7 -7 -8 -8 -8 -8 -8 -8 -8 -8 -8 -9 -9 -9 -9 -8 -8 -8 -8 -8 -8 -8 -8 -8 -8 -8 -8 -8 -8 -7 -7 -7 -7 -7 -7 -7 -6 -6 -7 -7 -6 -6 -5 -5 -6 -7 -7 -7 -7 -6 -6 -6 -7 -7 -7 -8 -8 -8 -9 -9 -9 -9 -9
-7 -7 -7 -7 -7 -7 -7 -7 -7 -8 -8 -8 -8 -8 -8 -8 -9 -9 -9 -9 -9 -9 -8 -8 -8 -8 -8 -8 -8 -8 -8 -8 -8 -8 -8 -8 -7 -7 -7 -7 -7 -7 -7 -6 -6 -7 -7 -6 -5 -5 -6 -7 -7 -6 -6 -6 -6 -7 -7 -7 -8 -8 -8 -9 -9 -9 -9 -9 -9
-7 -7 -7 -7 -7 -7 -7 -7 -7 -7 -7 -8 -8 -8 -8 -8 -9 -9 -9 -9 -8 -8 -8 -8 -8 -8 -8 -8 -8 -8 -8 -8 -8 -8 -8 -8 -7 -7 -7 -7 -7 -7 -7 -6 -7 -7 -7 -6 -5 -5 -5 -6 -6 -6 -6 -6 -6 -7 -7 -7 -8 -8 -8 -9 -9 -9 -9 -9 -9
-7 -7 -7 -7 -7 -7 -7 -7 -7 -7 -7 -7 -7 -8 -8 -8 -8 -8 -8 -8 -8 -8 -8 -8 -8 -8 -7 -7 -8 -8 -8 -8 -8 -8 -8 -7 -7 -7 -7 -7 -7 -7 -7 -7 -7 -7 -7 -6 -6 -5 -5 -6 -6 -6 -6 -6 -6 -7 -7 -8 -8 -8 -9 -9 -9 -9 -9 -9 -8
Height
897 896 896 895 894 893 892 891 890 888 887 885 883 881 880 878 876 874 873 871 869 867 864 861 859 856 854 851 849 847 844 840 837 834 830 827 824 820 817 813 810 807 804 802 801 801 801 801 801 801 801 801 800 800 799 798 797 796 795 795 794 793 792 791 790 790 789 788 787
897 896 896 895 894 893 892 891 889 888 886 885 883 881 880 878 876 875 873 871 869 867 864 861 859 856 854 851 849 846 843 840 836 833 829 826 822 819 815 812 808 805 801 799 798 798 798 799 800 800 800 800 799 798 798 797 796 795 794 793 793 792 791 790 790 789 788 787 786
897 896 896 895 894 893 891 890 889 887 886 884 883 881 880 878 876 875 873 871 869 866 864 861 858 856 853 851 848 846 843 840 836 833 829 825 821 818 814 810 807 804 800 798 796 796 797 797 798 799 799 798 798 797 796 795 795 794 793 793 792 791 790 790 789 788 787 786 785
897 896 895 894 893 892 891 890 889 887 886 884 882 881 879 878 876 874 872 870 868 866 863 861 858 856 853 851 848 845 842 840 836 833 829 825 821 818 814 811 808 804 800 798 796 795 796 796 797 797 797 797 796 796 795 795 794 793 793 792 791 791 790 789 788 787 786 785 784
896 896 895 894 893 892 891 890 888 886 885 883 882 880 879 877 876 874 872 870 867 865 863 861 858 856 853 850 847 845 842 839 836 833 829 826 822 818 815 812 809 805 802 799 797 796 796 796 797 797 796 796 796 795 795 794 793 793 792 791 791 790 789 788 787 786 785 784 783
896 895 895 894 893 892 891 889 888 886 884 883 881 880 878 877 875 873 871 869 867 865 862 860 858 856 853 850 847 844 841 839 836 833 830 826 823 819 816 813 810 807 804 801 799 798 797 797 797 797 797 796 796 795 795 794 793 792 792 791 790 789 788 787 786 785 784 783 782
896 895 894 893 892 891 890 888 887 885 884 882 881 879 878 876 874 872 871 869 866 864 862 860 857 855 852 850 847 844 841 839 836 833 830 827 824 821 818 815 812 809 806 804 801 800 799 798 798 798 797 797 796 795 794 794 793 792 791 790 790 789 787 786 785 784 783 782 780
896 895 894 893 892 891 889 888 886 885 883 882 880 879 877 875 874 872 870 868 866 864 862 860 857 855 852 850 848 845 842 839 836 834 831 828 825 822 819 817 814 811 808 806 804 802 800 799 798 798 797 797 796 795 794 793 792 792 791 790 789 787 786 785 784 783 782 781 779
895 894 893 892 891 890 888 887 886 884 883 881 880 878 876 875 873 871 869 868 866 864 862 859 857 854 852 850 848 845 842 840 837 834 831 829 826 823 821 818 816 813 810 808 806 804 802 800 800 799 798 797 796 795 794 793 792 791 790 789 788 787 785 785 784 783 781 780 779
895 894 893 892 891 889 888 886 885 884 882 881 879 877 876 874 873 871 869 867 866 863 861 859 857 854 852 850 848 845 843 840 838 835 832 830 827 824 822 820 817 815 812 810 808 805 804 802 800 799 798 797 796 795 794 793 792 791 790 789 787 786 785 784 783 782 781 780 778
895 893 892 891 890 889 887 886 884 883 881 880 878 876 875 874 872 870 869 867 865 863 861 859 856 854 852 850 848 846 843 841 838 836 833 830 828 825 823 821 819 816 814 812 809 807 805 803 802 800 799 798 796 795 794 793 792 791 790 789 787 786 785 784 783 782 780 779 778
894 893 892 891 890 888 887 885 884 882 881 879 878 876 874 873 871 870 868 866 864 862 861 859 856 855 852 850 848 846 844 841 839 836 834 831 828 826 824 821 820 818 815 813 811 809 807 805 803 802 800 799 797 796 795 794 793 791 790 789 788 787 785 784 783 781 780 779 778
894 893 892 891 889 888 886 885 883 882 881 879 877 876 874 872 871 869 867 866 864 862 860 858 856 855 853 851 848 846 844 841 839 837 834 832 829 827 824 822 821 819 816 814 812 810 808 806 804 803 801 800 799 797 796 795 793 792 791 790 788 787 786 785 783 782 780 780 778
894 892 891 890 889 887 886 884 883 881 880 878 877 875 874 872 870 869 867 865 863 862 860 858 856 855 853 851 849 846 844 842 840 837 835 832 830 827 825 822 821 820 818 815 813 811 809 807 805 804 802 800 799 798 796 795 794 793 792 790 789 788 786 785 784 782 781 780 779
893 892 891 890 888 887 886 884 883 881 880 878 876 875 873 871 870 868 867 865 863 861 860 858 856 854 852 851 849 846 844 842 840 837 835 832 830 827 825 823 822 820 819 816 814 812 810 808 806 804 803 801 800 798 797 796 795 793 792 791 790 788 787 785 784 783 781 780 779
892 891 890 889 888 886 885 884 882 881 880 878 876 875 873 871 870 868 866 865 863 861 860 858 856 854 852 851 849 846 844 842 840 838 835 833 830 828 826 824 822 821 820 818 815 813 811 809 807 805 804 802 800 799 797 796 795 794 792 791 790 789 787 786 784 783 782 780 779
892 891 890 889 887 886 885 883 882 881 879 877 876 874 872 871 869 867 866 865 863 861 859 857 856 854 852 850 848 846 844 842 840 838 836 833 831 829 827 825 823 822 820 819 816 814 811 810 808 806 804 803 801 800 798 796 795 794 793 791 790 789 787 786 785 783 782 781 780
891 890 889 888 887 886 884 883 882 880 879 877 875 874 872 871 869 867 866 864 863 861 859 857 855 854 852 850 848 846 845 842 841 839 836 834 832 830 827 826 824 822 821 820 817 815 812 810 808 807 805 803 802 800 799 797 796 794 793 791 790 789 787 786 785 783 782 781 780
891 890 889 887 886 885 884 883 881 880 878 877 875 873 872 870 869 867 865 863 862 861 859 857 855 853 851 850 848 846 844 842 841 839 837 835 832 830 828 826 824 823 821 820 818 816 813 811 809 807 805 804 802 801 799 798 796 795 793 792 790 789 787 786 785 783 782 781 780
890 889 888 887 886 885 883 882 881 879 878 876 875 873 871 870 868 866 865 863 861 860 858 856 855 853 851 849 847 846 844 842 841 839 837 835 833 831 828 826 824 823 821 820 819 816 814 812 810 808 806 804 803 801 800 798 797 795 794 792 791 790 788 786 785 784 782 781 780
890 889 888 887 886 884 883 882 880 879 877 876 874 873 871 870 868 866 865 863 861 860 858 856 855 853 851 849 847 845 843 842 840 839 837 835 833 831 829 826 824 822 821 820 819 817 815 812 810 808 806 805 803 801 800 799 797 795 794 793 791 790 789 787 786 784 783 781 780
890 888 887 886 885 884 882 881 880 878 877 875 874 872 871 869 867 866 864 863 861 859 857 856 854 852 851 849 847 846 843 841 840 838 836 835 833 831 829 827 824 822 821 819 819 817 815 812 810 808 807 805 803 802 800 799 797 796 795 793 792 790 789 788 786 785 783 782 780
889 888 887 886 885 883 882 881 879 878 876 875 873 872 870 869 867 866 864 862 861 859 857 856 854 852 851 849 847 846 843 841 839 837 836 834 833 831 829 827 825 822 820 819 818 817 814 812 810 808 807 805 804 802 801 799 798 796 795 793 792 790 789 788 787 785 784 782 781
889 887 886 885 884 883 881 880 878 877 875 874 872 871 870 868 866 865 863 862 860 858 857 855 853 852 850 849 847 846 844 841 839 837 835 834 832 831 829 827 825 822 820 819 819 817 815 812 810 808 807 805 804 803 801 800 798 797 795 794 792 791 789 788 787 785 784 783 781
888 887 886 885 883 882 881 879 878 876 875 873 872 871 869 867 866 864 863 861 860 858 856 855 853 851 850 848 847 845 843 841 839 837 835 833 831 830 828 827 825 822 821 820 820 817 815 813 811 809 807 805 804 803 801 800 799 797 795 794 793 791 790 788 786 785 784 783 781
887 886 885 884 883 881 880 878 877 876 874 872 871 870 868 867 866 864 862 861 859 857 856 855 853 851 850 848 846 845 843 841 840 837 836 833 831 830 828 826 825 822 821 821 820 818 815 814 812 810 807 806 804 803 801 800 799 797 796 795 793 791 790 788 787 785 784 783 781
887 886 885 883 882 881 879 878 876 875 873 872 870 869 867 866 865 863 862 860 859 857 856 854 853 851 850 848 846 844 843 841 839 838 836 834 832 830 828 826 825 823 821 821 820 818 815 814 812 810 808 806 804 803 802 800 799 798 796 795 793 792 790 789 787 786 784 783 781
886 885 884 883 881 880 879 877 876 874 872 871 870 868 867 866 864 863 861 860 858 857 855 854 853 851 850 848 846 844 843 841 839 837 836 834 832 830 828 826 825 823 821 820 819 817 816 814 813 811 809 806 805 803 802 801 800 798 796 795 794 792 790 789 788 786 785 783 781
886 885 883 882 881 879 878 876 875 873 872 870 869 867 866 865 864 862 861 859 858 856 855 854 852 851 850 848 846 844 843 841 839 837 836 834 832 830 828 826 825 823 821 820 819 817 816 814 813 811 809 807 805 804 802 801 800 799 797 796 794 793 791 790 788 787 785 784 782
885 884 883 882 880 879 877 876 875 873 871 870 868 867 865 864 863 861 860 859 857 856 855 854 852 851 850 848 846 844 842 841 839 837 836 833 831 830 828 826 825 823 821 820 819 818 816 814 813 812 810 808 805 804 803 801 800 799 798 796 795 793 791 790 788 787 785 784 782
885 884 882 881 880 878 877 876 874 872 871 869 868 866 865 863 862 861 860 858 857 856 855 854 852 851 849 848 846 844 842 841 839 837 836 833 831 830 828 826 824 823 821 820 819 818 816 815 813 812 810 808 806 804 803 801 800 799 798 797 795 794 792 790 789 787 785 784 782
884 883 882 881 879 878 876 875 873 872 870 869 867 866 864 863 862 861 859 858 857 856 854 853 851 850 849 847 846 844 842 841 839 837 836 834 831 830 828 826 824 822 821 820 819 818 816 815 814 812 811 809 806 805 803 801 800 800 798 797 795 794 792 790 789 787 785 784 782
884 883 881 880 879 877 876 875 873 871 870 868 866 865 864 862 861 860 859 858 856 855 854 852 851 850 848 847 845 844 842 841 839 837 836 834 831 830 828 826 824 822 821 820 818 817 816 815 814 812 810 809 807 805 803 802 800 800 799 797 796 794 793 791 789 788 786 784 782
883 882 881 880 879 877 876 874 873 871 869 868 866 865 863 862 861 860 858 857 856 855 853 852 851 850 848 847 845 844 842 841 839 837 835 833 831 830 828 826 824 822 821 819 818 817 815 814 813 812 810 809 807 805 803 802 800 800 799 797 796 795 793 791 789 788 786 785 783
883 881 881 879 878 877 875 874 872 871 869 867 866 864 863 862 861 859 858 857 856 854 853 852 851 849 848 846 845 844 842 841 839 837 835 833 831 830 827 826 824 822 821 819 817 816 815 814 813 812 810 809 807 805 803 801 800 800 799 797 796 794 793 791 789 788 786 785 783
882 881 880 879 877 876 875 873 872 870 869 867 866 864 862 861 860 859 858 856 855 854 852 851 850 849 847 846 845 843 842 840 838 837 835 833 831 830 827 826 824 822 820 819 817 816 815 814 813 811 810 808 806 804 803 801 800 800 799 797 796 795 793 791 789 788 786 785 784
882 881 880 878 877 876 874 873 871 870 868 867 865 864 862 861 860 858 857 856 854 853 852 851 849 848 847 846 844 843 841 840 838 836 835 833 831 830 827 826 824 822 820 819 817 815 814 813 812 811 810 808 805 804 802 801 801 800 799 797 796 795 793 791 789 788 786 785 784
881 880 879 878 876 875 874 872 871 870 868 866 865 864 862 861 859 858 856 856 854 852 851 850 849 847 846 845 844 842 841 840 838 836 835 833 831 830 828 826 824 822 821 819 817 815 814 812 810 810 808 806 805 803 802 802 801 800 799 798 796 795 793 791 790 788 786 785 785
881 880 879 877 876 875 873 872 871 869 868 866 865 863 862 860 859 857 856 855 854 852 851 850 848 847 846 845 843 842 841 839 838 836 834 832 831 829 828 826 824 822 821 819 816 815 813 811 810 809 808 805 804 803 803 802 801 800 799 798 796 795 793 792 790 789 787 785 785
880 879 878 877 876 874 873 872 871 869 868 866 865 863 861 860 859 857 856 855 854 852 851 849 848 847 846 844 843 841 840 838 837 836 834 832 831 829 828 826 824 822 820 818 816 814 813 811 810 808 807 805 804 803 803 802 801 800 799 798 797 795 794 792 790 789 787 786 785
880 879 878 876 875 874 873 871 870 869 867 866 864 863 861 860 859 857 856 855 853 852 850 849 848 846 846 844 843 841 839 838 836 835 833 831 830 828 827 826 824 822 820 818 816 814 813 811 810 808 807 806 805 804 803 802 801 800 799 798 797 795 794 792 791 789 788 786 785
Wind_Speed
18 15 13 12 13 13 13 13 14 15 16 16 17 18 18 19 20 21 22 22 23 24 25 26 27 28 30 32 33 34 35 36 37 37 38 38 38 38 39 38 38 36 34 31 28 25 22 20 19 18 17 16 16 16 16 17 17 17 17 17 17 18 18 18 18 18 18 18 18
18 15 13 12 13 14 13 14 14 15 16 17 17 18 19 20 20 21 22 23 23 24 25 26 28 29 30 32 33 34 35 36 37 37 38 38 39 39 40 39 39 37 34 29 25 21 19 17 16 16 15 15 15 16 16 16 16 17 17 18 18 18 17 17 17 17 17 17 17
18 16 14 13 14 14 14 14 15 17 17 17 17 18 19 20 21 21 22 23 24 25 25 26 28 29 30 32 33 34 34 35 36 36 36 37 39 40 41 40 38 36 33 27 21 17 14 14 14 13 13 14 14 15 15 16 16 17 17 17 17 16 16 15 15 16 16 16 15
18 17 15 14 14 15 15 15 16 17 18 18 19 19 19 20 20 21 22 23 24 25 25 26 27 28 30 31 33 34 34 34 35 35 36 37 39 41 41 39 37 35 32 27 21 15 12 11 11 11 12 12 14 14 15 16 16 16 16 16 16 15 15 15 16 16 15 15 15
18 17 16 14 15 15 15 15 17 18 19 19 19 20 21 21 22 22 23 24 24 25 26 27 27 28 30 32 33 33 33 34 34 34 35 36 38 40 40 37 36 34 31 27 23 17 12 9 9 9 10 11 12 13 14 16 16 16 16 16 15 15 15 15 15 15 15 16 16
18 17 16 15 15 15 16 17 18 19 20 19 20 21 22 23 23 24 24 24 25 26 26 27 27 28 30 31 32 32 33 33 33 34 35 36 37 39 38 35 36 34 31 28 24 19 14 10 8 8 9 10 11 13 14 15 15 15 15 15 15 15 15 15 16 16 17 17 17
17 17 16 15 15 16 17 18 19 20 20 20 21 23 24 25 25 25 25 24 25 25 26 26 28 29 31 31 31 32 32 32 33 34 35 35 36 37 36 33 35 34 31 28 25 21 16 12 8 8 8 9 10 11 13 13 14 15 15 15 16 16 16 16 17 17 17 18 19
17 16 16 15 16 17 18 19 20 20 20 20 22 24 26 26 25 25 25 25 24 25 26 27 29 30 30 30 30 31 31 32 33 33 34 34 35 36 34 31 34 33 31 29 26 23 19 14 11 9 9 9 10 11 13 14 15 15 16 17 17 16 17 17 17 17 18 19 20
16 16 16 16 17 18 19 20 20 20 21 22 24 25 26 25 24 25 25 24 25 25 26 27 29 29 29 29 30 30 31 31 32 33 33 34 34 34 33 30 32 32 30 28 27 24 22 18 14 12 11 11 11 12 14 14 15 15 16 16 17 17 17 17 18 18 18 19 19
15 16 16 17 18 19 20 21 21 20 21 23 24 25 25 24 25 25 24 24 25 26 27 27 28 29 29 29 29 30 30 30 31 32 33 33 33 34 32 29 30 30 29 28 26 25 24 22 18 17 16 15 14 14 15 15 15 15 15 16 16 17 17 18 17 17 17 18 18
15 15 16 17 19 20 21 21 21 21 21 23 24 25 25 25 25 25 24 25 25 26 27 27 28 28 28 28 29 30 30 30 31 31 32 32 33 33 32 29 28 28 28 27 26 25 25 24 23 21 19 18 16 16 16 16 15 15 15 16 16 17 18 18 18 17 17 16 17
15 15 16 18 19 20 21 21 21 21 22 23 24 25 25 25 25 25 25 25 26 26 26 27 27 27 28 28 29 29 30 30 31 31 31 32 32 32 31 30 28 27 27 26 25 24 24 24 23 22 21 20 19 19 18 17 17 17 17 17 17 17 18 19 19 18 17 17 16
15 16 17 18 20 21 21 22 21 21 22 24 25 25 25 25 25 25 25 25 26 26 26 27 27 27 27 28 29 30 30 30 31 31 31 31 32 32 31 30 28 27 27 27 25 24 23 23 23 23 22 22 21 20 19 19 18 18 18 18 17 17 18 19 19 19 19 18 18
15 17 18 19 20 21 22 22 21 21 22 24 24 25 25 25 25 25 25 25 26 26 26 27 27 27 27 28 29 30 30 30 30 31 31 32 32 32 32 31 29 27 27 28 26 24 24 24 24 23 23 22 22 21 20 20 19 18 18 18 18 18 18 19 19 20 19 19 20
16 17 18 19 20 21 22 22 21 22 23 24 24 25 25 25 25 25 25 25 25 26 26 27 27 27 28 28 29 30 30 30 31 31 32 32 32 32 32 32 29 27 26 28 27 26 24 24 24 24 23 23 23 23 22 21 20 19 19 19 19 19 19 19 20 20 20 20 21
17 18 19 19 20 21 22 22 22 22 23 24 24 25 25 25 25 25 25 25 25 25 27 27 27 28 28 28 29 30 30 31 31 31 32 32 33 32 32 32 30 26 25 27 28 26 24 23 23 23 24 24 24 24 24 23 23 22 21 21 21 21 21 21 22 22 22 22 22
18 18 19 20 20 21 22 22 22 22 23 24 24 25 25 25 26 25 25 25 25 26 27 27 28 28 28 29 29 29 30 31 31 31 32 32 33 32 32 31 29 26 23 24 26 26 24 23 22 22 22 23 23 24 24 24 24 24 24 24 24 24 24 23 24 24 23 23 24
18 19 19 20 20 21 22 23 23 23 23 24 24 24 24 25 25 25 25 25 25 26 27 27 28 28 28 29 29 29 29 30 30 31 32 32 32 32 31 31 29 26 22 21 24 26 26 24 23 22 22 22 22 22 23 23 24 24 24 25 25 26 26 26 26 26 25 25 25
18 19 19 20 20 21 22 22 23 23 23 24 24 24 24 25 25 25 25 25 25 25 26 27 27 28 29 29 30 30 29 29 30 30 31 32 32 32 32 31 30 26 22 18 21 25 27 26 25 24 23 22 22 21 21 22 22 23 23 24 24 25 25 25 26 26 27 27 26
18 19 19 19 20 21 21 22 23 23 23 23 23 24 24 24 24 25 25 25 25 25 26 26 27 27 28 29 30 30 30 29 29 30 31 31 32 32 32 32 31 27 21 15 17 23 27 27 27 26 26 25 24 23 23 22 22 22 22 23 23 23 23 23 23 24 25 26 27
18 18 19 19 20 20 21 22 22 23 23 23 23 23 23 24 24 24 24 24 24 25 25 26 26 27 28 28 30 30 31 30 30 30 30 31 32 32 32 33 33 29 21 13 13 19 25 27 28 28 28 27 27 27 26 25 24 24 23 23 23 22 22 22 21 22 23 25 26
18 18 18 19 19 20 21 21 22 22 23 23 23 23 23 23 24 24 23 23 24 24 25 26 26 26 27 27 29 30 31 31 31 31 31 31 31 32 32 33 34 31 23 13 9 15 22 26 27 28 28 29 29 28 28 27 27 26 25 24 24 23 22 21 21 21 22 23 25
17 18 18 19 19 20 20 21 21 22 23 23 23 23 23 23 23 23 23 23 23 24 25 25 26 26 26 27 27 29 30 31 31 32 32 31 31 32 31 31 33 33 27 16 9 12 20 23 26 28 28 29 29 29 29 28 27 27 26 26 25 24 23 22 22 22 22 23 25
17 18 18 19 19 20 20 20 21 22 23 24 24 23 22 22 22 23 23 22 23 23 24 25 25 26 26 26 27 28 29 30 31 32 32 32 32 32 31 30 32 33 30 21 12 13 17 20 24 27 28 28 29 29 29 29 28 27 27 26 25 25 24 23 23 23 23 24 25
17 18 18 19 20 20 20 20 21 22 23 23 23 23 22 21 21 22 22 22 22 22 23 24 25 26 26 26 27 27 28 29 30 32 33 33 33 32 31 30 30 33 32 25 17 15 15 17 21 25 27 28 29 29 30 29 29 28 27 26 25 25 25 25 24 23 24 24 25
17 18 19 20 20 20 20 21 21 22 22 23 23 23 22 21 21 21 21 21 21 22 23 24 25 25 25 26 27 27 28 28 29 30 32 33 33 33 32 31 31 33 32 28 23 17 15 17 19 22 26 28 29 29 29 29 29 29 27 26 25 25 25 25 24 24 24 24 25
17 19 19 20 20 20 20 21 21 22 22 23 23 23 21 20 20 20 20 20 20 21 22 23 24 24 25 25 26 27 28 28 29 30 31 31 32 32 32 31 32 33 32 30 27 21 17 17 17 20 24 27 29 29 29 29 29 29 28 26 25 25 24 24 23 23 23 24 25
18 19 20 20 21 21 21 21 21 22 23 23 23 22 21 20 19 19 20 20 20 20 21 22 23 23 24 25 26 27 27 28 28 29 30 31 31 31 31 31 32 32 31 30 30 26 20 16 17 19 22 26 28 29 29 29 28 28 27 26 25 24 24 23 22 22 22 24 24
18 19 20 20 21 21 21 22 22 22 23 23 23 22 20 19 18 19 19 19 20 20 21 21 22 22 23 24 25 26 26 27 28 29 30 31 31 31 31 31 31 31 31 30 30 30 24 16 16 17 20 24 27 28 29 29 28 27 27 26 25 24 23 23 22 22 22 23 23
18 19 19 20 21 21 22 22 22 23 23 23 23 22 20 19 18 18 19 19 20 20 20 20 20 21 22 23 24 25 26 26 27 28 29 30 30 31 31 30 30 30 30 29 29 30 27 17 16 16 18 22 25 27 28 29 29 28 27 26 26 24 23 23 22 22 23 23 23
17 18 19 20 21 21 22 22 23 23 23 23 23 21 20 19 18 18 19 19 20 19 19 19 19 19 20 21 23 24 25 26 27 28 29 29 30 30 31 30 30 30 29 29 29 29 27 19 15 15 17 20 24 26 27 28 29 30 29 28 27 26 24 23 23 23 23 24 24
17 18 19 20 20 21 22 22 23 23 23 23 23 22 20 19 18 18 18 19 19 20 20 19 18 18 19 21 22 23 25 26 26 27 28 29 30 30 31 30 30 29 29 28 28 28 27 21 16 14 16 19 22 25 26 27 29 30 30 31 30 27 25 24 24 24 24 24 25
17 17 18 19 20 21 22 22 23 23 24 24 23 22 20 19 18 18 18 19 20 20 20 19 18 18 19 20 22 23 24 25 26 27 27 28 29 29 30 30 29 29 28 28 27 28 27 24 17 14 14 18 21 23 25 26 28 29 30 31 31 29 27 25 24 24 24 25 25
16 17 18 19 20 21 22 22 23 23 24 24 23 22 21 20 19 18 19 19 20 20 20 19 17 16 17 18 20 22 23 24 25 26 27 28 28 29 29 29 29 28 28 28 28 28 28 26 19 14 14 17 20 22 24 26 27 28 29 30 31 31 29 27 26 25 25 24 25
16 17 18 19 19 20 21 22 23 23 24 24 24 23 21 20 19 19 19 19 20 20 20 18 16 15 15 17 19 21 23 24 25 26 26 26 27 27 28 28 28 28 27 27 27 28 28 27 21 15 14 17 19 21 23 25 26 27 28 29 30 31 30 29 27 26 25 24 24
16 17 17 18 19 20 21 22 22 23 23 24 23 23 22 21 20 19 19 20 20 20 20 18 16 15 15 17 19 21 22 24 25 26 26 25 25 26 26 27 27 27 27 27 27 27 28 27 23 16 13 16 18 20 22 25 25 26 27 28 29 30 31 30 28 27 26 24 23
15 16 17 18 19 19 20 21 22 22 23 23 23 23 22 21 20 20 19 20 20 20 20 18 17 16 17 18 19 21 22 23 25 25 25 25 24 24 25 25 25 25 26 26 26 27 28 28 26 20 14 14 17 20 22 24 25 25 26 27 28 29 30 29 28 27 26 25 22
14 15 16 17 18 19 20 20 21 22 22 23 23 22 22 22 21 20 20 19 20 20 19 18 18 17 17 18 19 21 22 23 24 25 25 24 23 23 23 23 24 24 24 25 26 27 27 27 27 23 16 14 18 20 22 23 24 24 24 25 27 28 28 27 26 25 25 24 21
14 15 15 16 17 18 19 20 21 21 22 22 22 22 22 21 21 20 19 19 19 19 19 19 18 18 18 18 19 21 22 23 24 25 25 24 23 22 22 22 23 23 24 25 26 27 27 26 27 23 18 15 19 22 23 23 23 23 23 24 25 26 27 26 24 23 23 22 21
13 14 15 16 17 18 19 19 20 21 21 21 22 22 21 21 20 20 19 18 18 18 18 18 18 18 18 19 20 21 22 24 25 25 25 24 22 21 21 22 23 24 26 27 27 26 26 25 25 24 20 17 19 22 22 22 22 22 22 22 22 23 24 24 23 22 21 21 21
13 13 14 15 16 17 18 19 19 20 21 21 21 21 21 20 20 19 19 18 18 17 17 18 18 18 18 19 20 21 22 24 26 26 26 24 22 21 21 23 24 26 28 28 27 26 24 23 22 23 21 18 19 20 20 20 20 20 20 21 21 21 21 22 22 21 21 21 20
Wind_Direction
14 9 4 359 357 354 351 348 345 342 339 336 333 332 330 329 328 328 330 330 329 328 326 325 324 325 326 327 328 328 329 329 328 328 328 327 327 326 325 324 322 318 314 308 301 293 287 284 281 280 280 278 278 279 280 281 280 280 279 279 279 281 283 283 282 282 283 282 282
14 9 3 359 357 354 351 347 345 341 339 336 334 333 332 331 330 329 329 330 329 328 326 326 326 326 327 329 330 330 330 330 331 331 331 331 331 331 331 330 331 329 326 320 310 299 290 285 280 278 279 279 277 278 279 280 279 279 280 281 282 283 284 285 284 285 286 286 286
13 9 3 357 355 354 351 347 344 341 339 335 333 332 332 332 331 330 330 330 329 329 328 327 327 328 330 331 331 332 331 332 333 333 333 333 334 336 337 338 342 344 344 341 332 315 297 287 281 279 279 279 276 277 279 280 280 281 283 285 286 287 287 287 289 290 291 291 291
11 8 2 355 354 353 350 345 342 340 339 336 336 334 332 332 331 331 331 330 330 330 329 328 329 330 332 332 333 334 334 335 336 336 336 337 339 341 343 347 353 356 359 360 356 344 321 298 286 279 277 278 278 278 280 283 284 285 286 289 290 290 290 291 292 293 294 293 293
8 5 0 355 352 351 349 346 343 342 340 337 335 335 336 335 335 334 333 334 332 331 331 331 330 332 334 334 334 335 337 338 340 340 339 339 342 346 350 355 1 4 7 10 10 5 351 322 297 284 280 280 281 283 284 286 287 287 289 292 293 293 293 293 294 295 294 293 292
3 1 358 355 352 350 349 347 347 347 344 340 337 337 337 337 337 337 336 335 334 334 335 335 334 336 336 335 336 338 339 340 342 342 342 345 347 350 354 360 6 9 12 15 17 16 9 350 324 305 297 293 291 291 292 293 292 291 292 295 295 295 295 295 295 296 295 293 293
0 358 357 356 353 351 350 350 350 349 345 341 340 339 340 340 339 338 336 336 336 337 337 338 338 338 338 338 339 340 342 343 343 345 346 346 350 353 357 3 8 12 15 17 20 20 18 10 352 332 321 312 305 302 301 300 298 296 296 297 298 297 296 296 296 296 297 296 296
358 358 357 356 354 353 353 353 352 349 346 342 342 342 343 343 341 340 340 340 339 339 339 340 340 340 340 340 342 342 343 343 346 348 348 349 351 354 358 4 9 13 16 18 21 22 21 18 8 352 337 327 319 312 309 306 303 301 301 300 301 301 300 299 299 299 300 301 301
355 356 358 357 356 355 355 355 353 350 347 345 344 345 345 344 343 342 342 341 340 340 341 342 342 342 342 343 344 344 345 346 347 349 351 352 353 355 358 4 9 13 15 19 21 23 24 22 15 5 356 349 337 328 322 318 314 313 312 308 307 307 308 307 306 305 305 305 304
354 355 357 356 356 357 356 355 353 350 347 346 346 347 347 346 345 345 344 342 341 342 344 344 344 344 345 346 346 346 347 347 347 349 351 353 355 357 359 3 8 11 14 18 21 24 26 25 21 14 7 1 353 345 339 336 331 329 327 323 320 319 319 319 318 315 312 310 309
355 355 355 355 357 357 357 355 352 350 348 347 347 347 347 347 347 347 345 344 344 344 345 346 346 347 347 347 348 348 348 348 348 349 351 353 355 357 359 2 5 9 12 16 21 24 26 27 26 22 18 13 9 4 0 355 351 347 343 341 338 335 335 336 336 332 327 323 320
354 354 355 356 357 358 357 355 352 350 349 349 349 348 348 348 348 348 347 346 346 346 347 348 349 349 349 350 349 349 349 349 350 351 352 353 355 357 360 2 4 7 10 14 19 23 26 27 28 27 26 24 22 19 15 12 10 6 3 0 358 354 352 352 353 351 348 344 339
354 354 356 357 358 358 356 355 353 351 350 349 349 349 348 348 349 349 348 348 348 348 348 349 350 351 351 351 351 351 351 351 352 352 353 354 355 357 360 2 4 6 8 12 16 20 24 27 29 29 28 28 27 25 23 21 19 17 14 12 10 8 5 4 4 4 4 3 359
355 356 357 358 358 357 356 354 352 350 349 350 350 349 349 349 349 350 349 349 349 349 349 350 352 353 353 353 353 353 353 353 354 354 355 355 356 357 359 1 3 5 7 11 14 17 22 25 27 28 28 27 27 26 25 24 21 19 17 14 13 11 10 9 9 10 11 10 9
356 357 358 358 358 357 356 355 352 350 349 349 350 351 350 349 349 350 351 351 350 350 350 352 353 354 355 355 355 355 355 356 356 356 356 357 358 358 358 0 2 3 5 10 14 17 20 23 25 26 26 26 25 25 24 22 20 18 16 14 13 12 11 10 10 11 12 11 9
358 359 359 359 358 358 356 355 352 350 350 350 351 352 352 351 351 351 352 351 350 351 352 353 354 354 355 357 357 357 357 358 358 358 357 357 358 358 359 360 1 1 4 10 16 19 20 21 23 24 24 24 24 23 23 22 21 19 17 15 14 13 12 11 12 13 13 12 10
0 360 359 359 359 358 357 355 353 351 351 352 353 354 353 353 353 353 353 352 352 353 354 355 355 355 355 356 357 357 358 359 359 359 358 358 358 358 358 359 360 0 2 9 17 21 23 22 22 23 23 23 23 22 22 21 20 19 18 16 16 15 15 15 15 15 14 13 12
1 0 359 359 359 358 357 356 354 353 353 353 354 354 354 354 354 354 354 355 354 354 354 355 356 356 356 356 356 357 357 357 357 358 359 359 359 359 358 358 359 360 2 8 18 24 27 27 26 25 24 23 22 21 20 20 19 18 17 17 16 17 18 17 17 16 15 14 13
1 359 359 358 358 358 357 356 355 354 354 354 354 354 355 355 355 355 355 355 356 355 354 354 355 356 356 357 356 356 355 355 356 357 358 359 0 0 359 358 359 359 1 7 18 25 29 31 31 30 29 27 25 23 21 19 17 16 15 15 15 17 17 18 18 16 15 14 13
360 358 357 357 357 357 356 355 355 355 355 355 355 354 355 355 355 355 355 355 356 356 355 355 355 355 356 356 356 355 354 354 354 355 356 358 359 360 359 359 358 358 0 6 17 24 29 32 34 33 33 31 29 27 25 22 19 17 15 14 14 15 16 17 16 15 13 13 13
359 357 356 356 356 356 355 355 355 355 355 355 355 354 353 353 354 355 355 355 356 356 356 355 355 355 356 356 355 354 353 353 353 353 354 356 357 358 358 358 358 358 359 6 17 24 27 32 34 34 34 33 32 30 28 25 23 20 17 15 14 15 16 17 16 14 13 12 12
357 356 355 355 355 354 354 353 354 355 355 355 354 353 352 352 353 353 354 355 356 356 356 356 355 355 355 355 354 353 352 352 352 353 354 355 355 357 357 358 357 357 359 5 19 25 25 30 32 33 33 32 32 30 28 26 24 21 19 17 16 15 16 18 18 17 15 14 13
355 353 353 353 353 353 352 352 353 354 354 354 353 352 351 351 351 352 353 355 356 357 357 356 355 355 355 354 354 353 352 351 351 352 353 353 354 355 356 356 356 356 357 359 18 28 26 28 30 31 32 31 31 30 28 26 24 22 19 17 16 15 15 16 18 18 17 16 14
352 351 351 351 351 351 351 352 352 353 354 354 353 351 350 349 349 350 352 354 356 357 357 356 356 355 354 354 354 353 352 351 350 350 351 352 352 353 354 354 354 354 354 357 17 32 30 29 30 30 31 30 30 29 28 26 24 22 20 17 15 13 12 13 15 16 16 16 14
350 349 349 349 349 350 350 351 352 352 353 352 351 350 349 348 349 349 351 353 356 357 357 357 356 355 355 354 354 354 353 352 350 350 349 350 350 351 352 351 351 352 353 355 9 27 34 34 31 30 30 30 29 28 27 26 24 22 20 17 14 12 10 11 12 13 14 13 14
348 348 348 349 349 349 350 350 351 351 351 351 350 349 348 348 348 348 350 352 355 356 357 357 357 356 355 354 355 355 354 353 352 350 349 348 348 349 349 349 349 350 351 350 357 15 34 36 34 31 30 30 29 28 26 25 23 22 20 18 15 13 10 9 8 8 9 10 11
348 347 348 348 349 349 350 351 351 351 351 350 350 349 348 347 347 347 349 351 353 356 357 357 357 355 355 355 356 357 357 355 354 352 350 348 347 347 347 347 348 350 350 348 352 6 26 33 34 32 30 30 30 28 27 25 23 21 19 17 15 13 11 8 5 4 4 5 6
348 348 348 349 349 350 351 351 352 351 351 350 349 348 347 346 346 347 348 349 351 354 356 356 356 355 355 355 357 358 358 357 356 354 352 349 347 346 345 346 347 349 349 346 348 357 11 27 32 31 29 29 30 29 27 25 23 21 19 17 15 13 11 9 6 3 1 1 1
349 349 349 350 350 351 352 353 352 352 351 350 349 348 347 346 347 347 347 347 350 353 354 353 353 354 355 356 357 358 359 358 357 355 353 351 349 347 345 344 345 347 348 346 345 350 1 22 29 28 27 28 29 28 27 25 24 22 20 17 15 13 11 9 6 3 1 359 358
350 350 350 350 351 352 353 354 353 352 351 350 349 349 348 347 347 347 347 347 349 350 351 350 351 353 355 357 358 359 360 359 358 357 355 353 350 348 346 344 343 345 346 345 343 348 357 15 25 25 24 25 27 28 26 25 24 22 20 18 16 14 12 10 8 5 3 359 357
351 350 350 350 351 353 353 354 354 353 352 352 351 350 350 349 348 348 347 347 347 347 348 348 350 352 354 357 359 0 0 360 359 357 356 354 351 349 346 344 343 343 344 344 343 347 354 7 19 22 19 21 25 26 25 23 22 21 20 19 18 16 14 11 9 7 4 1 358
351 351 351 351 352 353 354 355 355 354 354 353 353 352 351 349 348 347 346 346 346 346 346 347 348 351 353 357 359 1 1 360 358 357 356 354 352 349 347 344 342 342 343 342 341 343 348 356 10 17 17 18 22 25 24 22 20 19 18 18 18 17 16 14 11 9 6 4 0
351 351 351 351 352 353 354 355 355 355 355 355 354 353 351 349 346 345 345 345 346 346 346 345 346 348 351 355 357 359 359 359 358 357 355 354 351 349 346 344 342 342 341 341 340 340 342 348 2 15 18 17 21 23 23 21 19 17 16 16 16 17 16 16 13 11 9 6 2
351 350 351 351 352 353 354 355 356 356 356 356 355 354 352 349 347 345 345 345 346 345 344 344 345 348 351 354 357 357 358 358 357 356 355 353 351 348 346 344 342 341 341 340 339 338 340 344 358 16 23 18 20 22 22 20 17 14 13 13 14 15 16 16 15 13 11 8 3
351 350 350 351 352 353 354 355 356 357 357 357 356 354 352 349 346 345 344 344 344 343 343 343 344 347 351 355 357 358 358 357 356 356 355 353 350 348 346 344 342 341 341 340 339 338 338 341 351 9 23 20 21 22 22 19 16 12 10 10 11 12 14 15 15 14 11 8 3
350 349 349 350 352 353 355 355 356 357 357 357 356 354 352 349 347 344 343 342 342 342 343 343 345 348 351 354 356 357 357 356 355 355 354 353 351 349 347 344 342 341 340 340 338 337 336 337 341 352 12 21 23 24 23 19 15 10 8 8 8 9 11 13 13 13 11 8 2
350 349 349 350 352 353 354 355 356 357 357 357 357 355 352 349 347 345 344 343 343 343 344 345 347 350 351 352 353 354 355 356 355 354 353 353 352 350 347 345 342 341 340 339 337 336 335 334 335 340 357 23 26 26 23 18 13 8 6 6 6 7 8 10 10 10 9 6 360
349 349 350 350 352 353 354 355 356 356 357 357 356 355 353 350 348 347 346 345 344 345 346 347 349 350 350 350 351 352 353 354 354 353 353 353 353 351 348 345 343 341 340 339 337 335 334 334 333 338 357 27 29 26 22 16 10 6 5 4 3 4 6 7 7 6 5 3 358
348 349 350 351 352 352 354 355 356 356 356 356 356 355 353 352 350 349 348 347 346 346 347 349 350 350 350 349 349 350 351 353 354 353 353 352 353 352 349 346 345 344 343 342 339 337 334 334 334 339 355 20 26 24 19 13 7 4 3 3 2 2 3 4 4 3 1 359 356
347 348 350 351 352 353 353 354 355 356 356 356 355 355 353 352 351 350 349 348 348 348 349 350 350 350 349 348 348 349 349 351 353 354 354 353 352 351 350 349 348 348 347 346 343 339 336 335 335 338 347 6 18 19 14 8 3 1 2 3 3 2 1 1 2 1 359 357 355
346 347 349 350 352 352 353 353 354 355 355 355 355 354 353 351 351 350 350 350 351 351 352 351 350 349 348 348 348 348 348 349 352 354 354 354 352 352 351 352 351 351 350 349 346 342 338 337 336 338 344 356 7 10 8 3 0 359 0 3 4 3 1 0 360 359 359 357 354